| time (UTC) | temp C | wind direction | speed KPH | gust KPH | rain 1hr cm | rain 24hr cm | rain mn cm | humidity % | barometer mb |
| 20260510060016 | 18 | 74 | 0.0 | 17.7 | 0.00 | 0.03 | 0.03 | 56 | 1027.8 |
| 20260510054515 | 20 | 89 | 0.0 | 17.7 | 0.00 | 0.03 | 0.03 | 53 | 1027.8 |
| 20260510053016 | 20 | 90 | 0.0 | 6.4 | 0.00 | 0.03 | 0.03 | 43 | 1027.9 |
| 20260510051514 | 20 | 125 | 0.0 | 8.0 | 0.00 | 0.03 | 0.03 | 42 | 1028.0 |
| 20260510050013 | 20 | 304 | 0.0 | 4.8 | 0.00 | 0.03 | 0.03 | 44 | 1028.0 |
| 20260510044512 | 21 | 70 | 0.0 | 6.4 | 0.00 | 0.03 | 0.03 | 43 | 1028.0 |
| 20260510043019 | 21 | 70 | 1.6 | 8.0 | 0.00 | 0.03 | 0.03 | 43 | 1027.9 |
| 20260510041508 | 21 | 272 | 0.0 | 9.7 | 0.00 | 0.03 | 0.03 | 46 | 1027.7 |
| 20260510040008 | 20 | 154 | 1.6 | 6.4 | 0.00 | 0.03 | 0.03 | 47 | 1027.6 |
| 20260510034506 | 20 | 241 | 0.0 | 9.7 | 0.00 | 0.03 | 0.03 | 46 | 1027.6 |
| 20260510033004 | 20 | 279 | 3.2 | 11.3 | 0.00 | 0.03 | 0.03 | 46 | 1027.7 |
| 20260510031601 | 20 | 280 | 1.6 | 6.4 | 0.00 | 0.03 | 0.03 | 48 | 1027.7 |
| 20260510030058 | 19 | 118 | 0.0 | 8.0 | 0.00 | 0.03 | 0.03 | 50 | 1027.8 |
| 20260510024559 | 19 | 89 | 0.0 | 9.7 | 0.00 | 0.03 | 0.03 | 49 | 1028.2 |
| 20260510023055 | 19 | 122 | 0.0 | 1.6 | 0.00 | 0.03 | 0.03 | 49 | 1028.4 |
| 20260510021553 | 18 | 92 | 0.0 | 8.0 | 0.00 | 0.03 | 0.03 | 52 | 1028.7 |
| 20260510020051 | 18 | 272 | 0.0 | 11.3 | 0.00 | 0.03 | 0.03 | 52 | 1028.8 |
| 20260510014548 | 18 | 84 | 0.0 | 6.4 | 0.00 | 0.03 | 0.03 | 53 | 1029.1 |
| 20260510013051 | 17 | 150 | 0.0 | 11.3 | 0.00 | 0.03 | 0.03 | 54 | 1029.2 |
| 20260510011552 | 17 | 73 | 0.0 | 0.0 | 0.00 | 0.03 | 0.03 | 56 | 1029.4 |
| 20260510010039 | 16 | 132 | 0.0 | 0.0 | 0.00 | 0.03 | 0.03 | 58 | 1029.7 |
| 20260510004535 | 15 | 102 | 0.0 | 8.0 | 0.00 | 0.03 | 0.03 | 63 | 1029.9 |
| 20260510003055 | 13 | 81 | 0.0 | 8.0 | 0.00 | 0.03 | 0.03 | 67 | 1030.1 |
| 20260510001529 | 10 | 75 | 0.0 | 4.8 | 0.00 | 0.03 | 0.03 | 86 | 1030.2 |
| 20260510000023 | 9 | 72 | 0.0 | 1.6 | 0.00 | 0.03 | 0.03 | 92 | 1030.2 |
| 20260509234527 | 9 | 70 | 0.0 | 0.0 | 0.00 | 0.03 | 0.03 | 93 | 1030.2 |
| 20260509233021 | 7 | 70 | 0.0 | 1.6 | 0.00 | 0.03 | 0.03 | 93 | 1030.3 |
| 20260509231510 | 6 | 70 | 0.0 | 0.0 | 0.00 | 0.03 | 0.03 | 93 | 1030.4 |
| 20260509230012 | 4 | 70 | 0.0 | 0.0 | 0.03 | 0.03 | 0.03 | 93 | 1030.6 |
| 20260509224501 | 3 | 70 | 0.0 | 0.0 | 0.03 | 0.03 | 0.03 | 93 | 1030.7 |
| 20260509223101 | 1 | 70 | 0.0 | 0.0 | 0.03 | 0.03 | 0.03 | 92 | 1030.6 |
| 20260509221554 | 1 | 70 | 0.0 | 0.0 | 0.03 | 0.03 | 0.03 | 92 | 1030.5 |
| 20260509220051 | 0 | 70 | 0.0 | 0.0 | 0.00 | 0.00 | 0.00 | 89 | 1030.4 |
| 20260509214552 | -1 | 70 | 0.0 | 0.0 | 0.00 | 0.00 | 0.00 | 87 | 1030.2 |
| 20260509213047 | -1 | 70 | 0.0 | 0.0 | 0.00 | 0.00 | 0.00 | 86 | 1030.1 |
| 20260509211545 | -2 | 70 | 0.0 | 0.0 | 0.00 | 0.00 | 0.00 | 85 | 1029.9 |
| 20260509210049 | -2 | 70 | 0.0 | 0.0 | 0.00 | 0.00 | 0.00 | 85 | 1029.8 |
| 20260509204541 | -2 | 70 | 0.0 | 0.0 | 0.00 | 0.00 | 0.00 | 85 | 1029.7 |
| 20260509203039 | -2 | 70 | 0.0 | 0.0 | 0.00 | 0.00 | 0.00 | 85 | 1029.5 |
| 20260509201538 | -2 | 70 | 0.0 | 0.0 | 0.00 | 0.00 | 0.00 | 85 | 1029.5 |
| 20260509200040 | -2 | 70 | 0.0 | 0.0 | 0.00 | 0.00 | 0.00 | 85 | 1029.5 |
| 20260509194537 | -2 | 70 | 0.0 | 0.0 | 0.00 | 0.00 | 0.00 | 85 | 1029.3 |
| 20260509193032 | -2 | 70 | 0.0 | 0.0 | 0.00 | 0.00 | 0.00 | 85 | 1029.1 |
| 20260509191531 | -2 | 70 | 0.0 | 0.0 | 0.00 | 0.00 | 0.00 | 85 | 1029.0 |
| 20260509190028 | -2 | 70 | 0.0 | 0.0 | 0.00 | 0.00 | 0.00 | 85 | 1028.9 |
| 20260509184527 | -2 | 70 | 0.0 | 0.0 | 0.00 | 0.00 | 0.00 | 85 | 1028.7 |
| 20260509183027 | -2 | 70 | 0.0 | 0.0 | 0.00 | 0.00 | 0.00 | 85 | 1028.6 |
| 20260509181539 | -2 | 70 | 0.0 | 0.0 | 0.00 | 0.00 | 0.00 | 85 | 1028.5 |
| 20260509180021 | -2 | 70 | 0.0 | 0.0 | 0.00 | 0.00 | 0.00 | 85 | 1028.4 |
| 20260509174519 | -2 | 70 | 0.0 | 0.0 | 0.00 | 0.00 | 0.00 | 85 | 1028.3 |
| 20260509173023 | -1 | 70 | 0.0 | 0.0 | 0.00 | 0.00 | 0.00 | 85 | 1028.2 |
| 20260509171519 | -1 | 70 | 0.0 | 0.0 | 0.00 | 0.00 | 0.00 | 85 | 1028.2 |
| 20260509170014 | -1 | 70 | 0.0 | 0.0 | 0.00 | 0.00 | 0.00 | 86 | 1028.3 |
| 20260509164513 | -1 | 70 | 0.0 | 0.0 | 0.00 | 0.00 | 0.00 | 86 | 1028.3 |
| 20260509163010 | -1 | 70 | 0.0 | 0.0 | 0.00 | 0.00 | 0.00 | 86 | 1028.3 |
| 20260509161509 | -1 | 70 | 0.0 | 0.0 | 0.00 | 0.00 | 0.00 | 86 | 1028.3 |
| 20260509160009 | -1 | 70 | 0.0 | 0.0 | 0.00 | 0.00 | 0.00 | 86 | 1028.3 |
| 20260509154505 | -1 | 70 | 0.0 | 0.0 | 0.00 | 0.00 | 0.00 | 86 | 1028.3 |
| 20260509153003 | -1 | 70 | 0.0 | 0.0 | 0.00 | 0.00 | 0.00 | 86 | 1028.2 |
| 20260509151503 | 0 | 70 | 0.0 | 0.0 | 0.00 | 0.00 | 0.00 | 86 | 1028.3 |
| 20260509150059 | 0 | 70 | 0.0 | 0.0 | 0.00 | 0.00 | 0.00 | 86 | 1028.3 |
| 20260509144557 | 0 | 70 | 0.0 | 0.0 | 0.00 | 0.00 | 0.00 | 86 | 1028.3 |
| 20260509143058 | 0 | 70 | 0.0 | 0.0 | 0.00 | 0.00 | 0.00 | 86 | 1028.4 |
| 20260509141606 | 0 | 70 | 0.0 | 0.0 | 0.00 | 0.00 | 0.00 | 86 | 1028.3 |
| 20260509140058 | 0 | 70 | 0.0 | 0.0 | 0.00 | 0.00 | 0.00 | 86 | 1028.3 |
| 20260509134558 | 0 | 70 | 0.0 | 0.0 | 0.00 | 0.00 | 0.00 | 87 | 1028.4 |
| 20260509133051 | 0 | 70 | 0.0 | 0.0 | 0.00 | 0.00 | 0.00 | 88 | 1028.3 |
| 20260509131550 | 0 | 70 | 0.0 | 0.0 | 0.00 | 0.00 | 0.00 | 88 | 1028.2 |
| 20260509130052 | 0 | 70 | 0.0 | 0.0 | 0.00 | 0.00 | 0.00 | 88 | 1028.1 |
| 20260509124550 | 0 | 70 | 0.0 | 0.0 | 0.00 | 0.00 | 0.00 | 88 | 1028.1 |
| 20260509123052 | 1 | 70 | 0.0 | 0.0 | 0.00 | 0.00 | 0.00 | 88 | 1028.1 |
| 20260509121550 | 1 | 70 | 0.0 | 0.0 | 0.00 | 0.00 | 0.00 | 88 | 1028.1 |
| 20260509120053 | 1 | 70 | 0.0 | 0.0 | 0.00 | 0.00 | 0.00 | 88 | 1028.2 |
| 20260509114547 | 1 | 70 | 0.0 | 0.0 | 0.00 | 0.00 | 0.00 | 88 | 1028.1 |
| 20260509113046 | 2 | 70 | 0.0 | 0.0 | 0.00 | 0.00 | 0.00 | 87 | 1028.1 |
| 20260509111551 | 2 | 70 | 0.0 | 0.0 | 0.00 | 0.00 | 0.00 | 88 | 1028.0 |
| 20260509110044 | 2 | 70 | 0.0 | 0.0 | 0.00 | 0.00 | 0.00 | 88 | 1028.0 |
| 20260509104545 | 2 | 70 | 0.0 | 0.0 | 0.00 | 0.00 | 0.00 | 86 | 1028.0 |
| 20260509103044 | 3 | 70 | 0.0 | 0.0 | 0.00 | 0.00 | 0.00 | 85 | 1027.9 |
| 20260509101552 | 3 | 70 | 0.0 | 0.0 | 0.00 | 0.00 | 0.00 | 84 | 1027.8 |
| 20260509100043 | 3 | 70 | 0.0 | 0.0 | 0.00 | 0.00 | 0.00 | 84 | 1027.6 |
| 20260509094544 | 5 | 70 | 0.0 | 0.0 | 0.00 | 0.00 | 0.00 | 84 | 1027.6 |
| 20260509093052 | 5 | 70 | 0.0 | 0.0 | 0.00 | 0.00 | 0.00 | 82 | 1027.4 |
| 20260509091541 | 6 | 70 | 0.0 | 0.0 | 0.00 | 0.00 | 0.00 | 80 | 1027.1 |
| 20260509090041 | 7 | 70 | 0.0 | 0.0 | 0.00 | 0.00 | 0.00 | 78 | 1027.0 |
| 20260509084549 | 8 | 70 | 0.0 | 0.0 | 0.00 | 0.00 | 0.00 | 76 | 1026.8 |
| 20260509083039 | 9 | 70 | 0.0 | 0.0 | 0.00 | 0.00 | 0.00 | 73 | 1026.6 |
| 20260509081542 | 10 | 70 | 0.0 | 0.0 | 0.00 | 0.00 | 0.00 | 72 | 1026.4 |
| 20260509080050 | 11 | 70 | 0.0 | 0.0 | 0.00 | 0.00 | 0.00 | 71 | 1026.2 |
| 20260509074538 | 12 | 71 | 0.0 | 0.0 | 0.00 | 0.00 | 0.00 | 68 | 1025.9 |
| 20260509073039 | 13 | 71 | 0.0 | 0.0 | 0.00 | 0.00 | 0.00 | 63 | 1025.6 |
| 20260509071536 | 15 | 71 | 0.0 | 0.0 | 0.00 | 0.00 | 0.00 | 61 | 1025.4 |
| 20260509070039 | 15 | 41 | 0.0 | 1.6 | 0.00 | 0.00 | 0.00 | 59 | 1025.4 |
| 20260509064535 | 16 | 54 | 0.0 | 8.0 | 0.00 | 0.00 | 0.00 | 58 | 1025.2 |
| 20260509063034 | 16 | 353 | 0.0 | 0.0 | 0.00 | 0.00 | 0.00 | 56 | 1025.0 |
| 20260509061534 | 17 | 75 | 0.0 | 0.0 | 0.00 | 0.00 | 0.00 | 55 | 1024.7 |